Time,TemperatureF,DewpointF,PressureIn,WindDirection,WindDirectionDegrees,WindSpeedMPH,WindSpeedGustMPH,Humidity,HourlyPrecipIn,Conditions,Clouds,dailyrainin,SoftwareType,DateUTC
2013-07-27 00:00:00,59.2,57.0,29.97,ENE,62,3.0,12.0,92,0.00,,,0.00,weatherlink.com 1.10,2013-07-27 04:00:00,
2013-07-27 00:15:00,59.2,57.0,29.97,NE,41,6.0,13.0,92,0.00,,,0.00,weatherlink.com 1.10,2013-07-27 04:15:00,
2013-07-27 00:30:00,59.2,57.0,29.97,NE,52,0.0,9.0,91,0.00,,,0.00,weatherlink.com 1.10,2013-07-27 04:30:00,
2013-07-27 00:45:00,58.6,56.0,29.97,NNE,15,0.0,2.0,92,0.00,,,0.00,weatherlink.com 1.10,2013-07-27 04:45:00,
2013-07-27 01:00:00,58.3,56.0,29.98,NNE,27,0.0,5.0,92,0.00,,,0.00,weatherlink.com 1.10,2013-07-27 05:00:00,
2013-07-27 01:15:00,58.0,56.0,29.97,NNE,17,1.0,3.0,92,0.00,,,0.00,weatherlink.com 1.10,2013-07-27 05:15:00,
2013-07-27 01:30:00,57.9,56.0,29.97,NNE,17,1.0,3.0,92,0.00,,,0.00,weatherlink.com 1.10,2013-07-27 05:30:00,
2013-07-27 01:45:00,57.7,56.0,29.97,North,5,0.0,3.0,93,0.00,,,0.00,weatherlink.com 1.10,2013-07-27 05:45:00,
2013-07-27 02:00:00,57.4,55.0,29.96,NNE,19,1.0,1.0,93,0.00,,,0.00,weatherlink.com 1.10,2013-07-27 06:00:00,
2013-07-27 02:15:00,56.9,55.0,29.96,North,5,0.0,3.0,94,0.00,,,0.00,weatherlink.com 1.10,2013-07-27 06:15:00,
2013-07-27 02:30:00,56.4,55.0,29.96,NNE,15,0.0,1.0,95,0.00,,,0.00,weatherlink.com 1.10,2013-07-27 06:30:00,
2013-07-27 02:45:00,56.3,55.0,29.97,NNW,330,0.0,4.0,95,0.00,,,0.00,weatherlink.com 1.10,2013-07-27 06:45:00,
2013-07-27 03:00:00,56.6,55.0,29.96,North,355,0.0,2.0,95,0.00,,,0.00,weatherlink.com 1.10,2013-07-27 07:00:00,
2013-07-27 03:15:00,56.6,55.0,29.97,North,5,0.0,1.0,95,0.00,,,0.00,weatherlink.com 1.10,2013-07-27 07:15:00,
2013-07-27 03:30:00,56.6,55.0,29.97,NW,317,0.0,5.0,95,0.00,,,0.00,weatherlink.com 1.10,2013-07-27 07:30:00,
2013-07-27 03:45:00,56.6,55.0,29.96,NW,320,0.0,4.0,95,0.00,,,0.00,weatherlink.com 1.10,2013-07-27 07:45:00,
2013-07-27 04:00:00,56.5,55.0,29.96,North,355,0.0,2.0,95,0.00,,,0.00,weatherlink.com 1.10,2013-07-27 08:00:00,
2013-07-27 04:15:00,56.4,55.0,29.97,NNE,30,0.0,2.0,95,0.00,,,0.00,weatherlink.com 1.10,2013-07-27 08:15:00,
2013-07-27 04:30:00,56.3,55.0,29.97,NNE,33,0.0,4.0,95,0.00,,,0.00,weatherlink.com 1.10,2013-07-27 08:30:00,
2013-07-27 04:45:00,56.4,55.0,29.98,NNE,16,0.0,1.0,95,0.00,,,0.00,weatherlink.com 1.10,2013-07-27 08:45:00,
2013-07-27 05:00:00,56.4,55.0,29.98,NNE,23,1.0,3.0,95,0.00,,,0.00,weatherlink.com 1.10,2013-07-27 09:00:00,
2013-07-27 05:15:00,56.4,55.0,29.98,NNE,29,0.0,3.0,95,0.00,,,0.00,weatherlink.com 1.10,2013-07-27 09:15:00,
2013-07-27 05:30:00,56.2,55.0,29.98,North,5,0.0,4.0,96,0.00,,,0.00,weatherlink.com 1.10,2013-07-27 09:30:00,
2013-07-27 05:45:00,56.2,55.0,29.99,NNE,12,2.0,6.0,96,0.00,,,0.00,weatherlink.com 1.10,2013-07-27 09:45:00,
2013-07-27 06:00:00,56.1,55.0,30.00,NE,40,0.0,3.0,96,0.00,,,0.00,weatherlink.com 1.10,2013-07-27 10:00:00,
2013-07-27 06:15:00,56.4,55.0,30.00,NE,36,0.0,2.0,95,0.00,,,0.00,weatherlink.com 1.10,2013-07-27 10:15:00,
2013-07-27 06:30:00,56.7,55.0,30.00,North,5,0.0,3.0,95,0.00,,,0.00,weatherlink.com 1.10,2013-07-27 10:30:00,
2013-07-27 06:45:00,56.9,56.0,30.00,NE,44,0.0,3.0,95,0.00,,,0.00,weatherlink.com 1.10,2013-07-27 10:45:00,
2013-07-27 07:00:00,57.0,55.0,30.01,North,9,1.0,3.0,94,0.00,,,0.00,weatherlink.com 1.10,2013-07-27 11:00:00,
2013-07-27 07:15:00,57.2,56.0,30.01,NNE,20,1.0,5.0,94,0.00,,,0.00,weatherlink.com 1.10,2013-07-27 11:15:00,
2013-07-27 07:30:00,57.5,56.0,30.01,North,5,3.0,4.0,93,0.00,,,0.00,weatherlink.com 1.10,2013-07-27 11:30:00,
2013-07-27 07:45:00,58.5,57.0,30.02,NE,42,0.0,4.0,93,0.00,,,0.00,weatherlink.com 1.10,2013-07-27 11:45:00,
2013-07-27 08:00:00,59.9,57.0,30.02,NE,49,0.0,4.0,90,0.00,,,0.00,weatherlink.com 1.10,2013-07-27 12:00:00,
2013-07-27 08:15:00,60.3,57.0,30.02,ENE,57,1.0,4.0,90,0.00,,,0.00,weatherlink.com 1.10,2013-07-27 12:15:00,
2013-07-27 08:30:00,60.8,57.0,30.02,NNE,28,0.0,3.0,88,0.00,,,0.00,weatherlink.com 1.10,2013-07-27 12:30:00,
2013-07-27 08:45:00,64.4,59.0,30.02,NNW,340,0.0,4.0,83,0.00,,,0.00,weatherlink.com 1.10,2013-07-27 12:45:00,
2013-07-27 09:00:00,65.3,59.0,30.02,WNW,302,0.0,5.0,79,0.00,,,0.00,weatherlink.com 1.10,2013-07-27 13:00:00,
2013-07-27 09:15:00,66.2,59.0,30.02,NNE,32,4.0,7.0,78,0.00,,,0.00,weatherlink.com 1.10,2013-07-27 13:15:00,
2013-07-27 09:30:00,64.9,59.0,30.02,West,268,0.0,6.0,80,0.00,,,0.00,weatherlink.com 1.10,2013-07-27 13:30:00,
2013-07-27 09:45:00,64.6,59.0,30.02,NNW,342,1.0,7.0,81,0.00,,,0.00,weatherlink.com 1.10,2013-07-27 13:45:00,
2013-07-27 10:00:00,65.4,59.0,30.02,North,10,0.0,5.0,81,0.00,,,0.00,weatherlink.com 1.10,2013-07-27 14:00:00,
2013-07-27 10:15:00,66.8,60.0,30.02,NW,326,0.0,3.0,79,0.00,,,0.00,weatherlink.com 1.10,2013-07-27 14:15:00,
2013-07-27 10:31:00,65.8,58.0,30.02,NNE,17,0.0,4.0,76,0.00,,,0.00,weatherlink.com 1.10,2013-07-27 14:31:00,
2013-07-27 10:46:00,67.0,58.0,30.01,NE,48,4.0,8.0,74,0.00,,,0.00,weatherlink.com 1.10,2013-07-27 14:46:00,
2013-07-27 11:01:00,66.2,58.0,30.02,NE,38,0.0,5.0,75,0.00,,,0.00,weatherlink.com 1.10,2013-07-27 15:01:00,
2013-07-27 11:16:00,67.8,58.0,30.02,East,99,2.0,3.0,70,0.00,,,0.00,weatherlink.com 1.10,2013-07-27 15:16:00,
2013-07-27 11:31:00,68.9,60.0,30.01,NNE,13,1.0,3.0,72,0.00,,,0.00,weatherlink.com 1.10,2013-07-27 15:31:00,
2013-07-27 11:46:00,68.5,58.0,30.02,NE,50,0.0,7.0,70,0.00,,,0.00,weatherlink.com 1.10,2013-07-27 15:46:00,
2013-07-27 12:01:00,68.1,59.0,30.02,North,5,0.0,3.0,73,0.00,,,0.00,weatherlink.com 1.10,2013-07-27 16:01:00,
2013-07-27 12:16:00,68.6,59.0,30.02,NE,44,0.0,5.0,71,0.00,,,0.00,weatherlink.com 1.10,2013-07-27 16:16:00,
2013-07-27 12:31:00,68.4,59.0,30.01,North,355,0.0,1.0,72,0.00,,,0.00,weatherlink.com 1.10,2013-07-27 16:31:00,
2013-07-27 12:46:00,69.1,59.0,30.01,NE,52,0.0,4.0,70,0.00,,,0.00,weatherlink.com 1.10,2013-07-27 16:46:00,
2013-07-27 13:01:00,70.3,58.0,30.01,NNW,342,1.0,2.0,65,0.00,,,0.00,weatherlink.com 1.10,2013-07-27 17:01:00,
2013-07-27 13:16:00,72.5,56.0,30.00,SSW,212,0.0,4.0,56,0.00,,,0.00,weatherlink.com 1.10,2013-07-27 17:16:00,
2013-07-27 13:31:00,72.4,54.0,30.00,SW,220,2.0,4.0,52,0.00,,,0.00,weatherlink.com 1.10,2013-07-27 17:31:00,
2013-07-27 13:46:00,72.8,55.0,30.00,South,173,1.0,5.0,54,0.00,,,0.00,weatherlink.com 1.10,2013-07-27 17:46:00,
2013-07-27 14:01:00,71.0,56.0,30.00,NE,49,0.0,3.0,60,0.00,,,0.00,weatherlink.com 1.10,2013-07-27 18:01:00,
2013-07-27 14:16:00,71.3,55.0,30.00,ENE,76,0.0,4.0,57,0.00,,,0.00,weatherlink.com 1.10,2013-07-27 18:16:00,
2013-07-27 14:31:00,71.5,56.0,30.00,SE,132,1.0,3.0,58,0.00,,,0.00,weatherlink.com 1.10,2013-07-27 18:31:00,
2013-07-27 14:46:00,73.2,56.0,30.00,ESE,116,0.0,2.0,56,0.00,,,0.00,weatherlink.com 1.10,2013-07-27 18:46:00,
2013-07-27 15:16:00,74.2,54.0,29.99,SSW,213,2.0,5.0,50,0.00,,,0.00,weatherlink.com 1.10,2013-07-27 19:16:00,
2013-07-27 15:31:00,75.6,53.0,29.99,WNW,282,0.0,10.0,46,0.00,,,0.00,weatherlink.com 1.10,2013-07-27 19:31:00,
2013-07-27 15:46:00,74.8,56.0,29.99,ENE,75,1.0,4.0,52,0.00,,,0.00,weatherlink.com 1.10,2013-07-27 19:46:00,
2013-07-27 16:31:00,73.1,58.0,29.99,WNW,303,0.0,5.0,59,0.00,,,0.00,weatherlink.com 1.10,2013-07-27 20:31:00,
2013-07-27 16:46:00,72.0,60.0,29.98,WNW,299,0.0,1.0,65,0.00,,,0.00,weatherlink.com 1.10,2013-07-27 20:46:00,
2013-07-27 17:16:00,72.4,58.0,29.98,WNW,296,0.0,5.0,61,0.00,,,0.00,weatherlink.com 1.10,2013-07-27 21:16:00,
2013-07-27 17:31:00,72.4,59.0,29.98,WNW,296,0.0,1.0,62,0.00,,,0.00,weatherlink.com 1.10,2013-07-27 21:31:00,
2013-07-27 17:46:00,72.6,59.0,29.97,WNW,297,0.0,0.0,63,0.00,,,0.00,weatherlink.com 1.10,2013-07-27 21:46:00,
2013-07-27 18:01:00,72.1,58.0,29.97,WNW,296,0.0,2.0,62,0.00,,,0.00,weatherlink.com 1.10,2013-07-27 22:01:00,
2013-07-27 18:16:00,71.2,59.0,29.97,WNW,296,0.0,0.0,65,0.00,,,0.00,weatherlink.com 1.10,2013-07-27 22:16:00,
2013-07-27 18:31:00,69.8,59.0,29.97,WNW,301,0.0,2.0,68,0.00,,,0.00,weatherlink.com 1.10,2013-07-27 22:31:00,
2013-07-27 18:46:00,71.1,58.0,29.97,WNW,282,1.0,3.0,63,0.00,,,0.00,weatherlink.com 1.10,2013-07-27 22:46:00,
2013-07-27 19:16:00,69.0,58.0,29.96,WNW,282,0.0,1.0,69,0.00,,,0.00,weatherlink.com 1.10,2013-07-27 23:16:00,
2013-07-27 19:46:00,66.6,59.0,29.96,WNW,282,0.0,2.0,76,0.00,,,0.00,weatherlink.com 1.10,2013-07-27 23:46:00,
2013-07-27 20:01:00,66.0,57.0,29.97,WNW,282,0.0,2.0,73,0.00,,,0.00,weatherlink.com 1.10,2013-07-28 00:01:00,
2013-07-27 20:16:00,64.8,57.0,29.96,WNW,282,0.0,0.0,77,0.00,,,0.00,weatherlink.com 1.10,2013-07-28 00:16:00,
2013-07-27 20:31:00,64.8,56.0,29.97,WNW,282,0.0,3.0,73,0.00,,,0.00,weatherlink.com 1.10,2013-07-28 00:31:00,
2013-07-27 20:46:00,64.5,56.0,29.97,WNW,282,0.0,1.0,75,0.00,,,0.00,weatherlink.com 1.10,2013-07-28 00:46:00,
2013-07-27 21:01:00,63.6,56.0,29.98,WNW,282,0.0,0.0,77,0.00,,,0.00,weatherlink.com 1.10,2013-07-28 01:01:00,
2013-07-27 21:16:00,63.8,58.0,29.99,WNW,282,0.0,1.0,81,0.00,,,0.00,weatherlink.com 1.10,2013-07-28 01:16:00,
2013-07-27 21:31:00,63.2,56.0,29.99,WNW,282,0.0,2.0,76,0.00,,,0.00,weatherlink.com 1.10,2013-07-28 01:31:00,
2013-07-27 22:16:00,62.9,56.0,29.99,WNW,282,0.0,0.0,77,0.00,,,0.00,weatherlink.com 1.10,2013-07-28 02:16:00,
2013-07-27 22:31:00,62.2,56.0,29.99,WNW,282,0.0,0.0,80,0.00,,,0.00,weatherlink.com 1.10,2013-07-28 02:31:00,
2013-07-27 22:46:00,61.8,56.0,29.99,WNW,282,0.0,0.0,81,0.00,,,0.00,weatherlink.com 1.10,2013-07-28 02:46:00,
2013-07-27 23:16:00,61.9,56.0,29.99,WNW,282,0.0,0.0,80,0.00,,,0.00,weatherlink.com 1.10,2013-07-28 03:16:00,
2013-07-27 23:31:00,61.1,56.0,29.99,WNW,282,0.0,0.0,83,0.00,,,0.00,weatherlink.com 1.10,2013-07-28 03:31:00,
2013-07-27 23:46:00,60.8,56.0,29.99,WNW,282,0.0,0.0,83,0.00,,,0.00,weatherlink.com 1.10,2013-07-28 03:46:00,